Home > Time Zones > World Clock > Weather > Egypt > Cairo > Past weeks

Flag for Egypt Weather past 2 weeks in Cairo, Egypt

Now
57 °F

Haze.


Feels Like: 57 °F
Forecast: 48 / 78 °F
Wind: 5 mph from East

Location: Cairo Airport

Current Time: Feb 1, 2015 at 10:27:55 PM

Latest Report: Feb 1, 2015 at 10:00 PM


Visibility: 2 mi

Pressure: 30.01 "Hg

Humidity: 33%

Dew point: 28 °F

Location of CairoLocation

Historic Weather in Cairo — Graph

°F

Cairo temperature yesterday

Maximum temperature yesterday: 68 °F (at 2:30 PM)
Minimum temperature yesterday: 50 °F (at 4:00 AM)
Average temperature yesterday: 59 °F

Past Weeks' High & Low Weather Summary

 TemperatureHumidityPressure
High79 °F (Jan 22, 1:30 PM)100% (Jan 25, 2:30 AM)30.36 "Hg (Jan 25, 2:30 AM)
Low46 °F (Jan 20, 3:30 AM)9% (Jan 23, 3:00 PM)29.89 "Hg (Jan 27, 3:00 PM)
Average61 °F48%30.07 "Hg
* Reported Jan 17 9:00 PM — Feb 1 9:30 PM, Cairo, Weather by CustomWeather, © 2014

Note: Actual official high and low records may vary slightly from our data, if they occured in-between our weather recording intervals... More about our weather records

Advertising

Cairo weather history for previous 24 hours

 ConditionsComfort  
Time TempWeatherWind HumidityBarometerVisibility
9:30 PM
Feb 1
59 °FHaze.3 mph31%30.01 "Hg2 mi
9:00 PM59 °FHaze.3 mph31%30.01 "Hg2 mi
8:30 PM61 °FHaze.3 mph29%30.01 "Hg2 mi
8:00 PM61 °FHaze.3 mph29%30.01 "Hg2 mi
7:30 PM63 °FHaze.No wind25%30.01 "Hg2 mi
7:00 PM66 °FHaze.No wind24%30.01 "Hg2 mi
6:30 PM68 °FHaze.No wind23%30.01 "Hg2 mi
6:00 PM68 °FHaze.3 mph24%29.98 "Hg2 mi
5:30 PM70 °FHaze.3 mph23%29.98 "Hg2 mi
5:00 PM72 °FClear.6 mph19%29.98 "Hg4 mi
4:30 PM73 °FSunny.5 mph15%29.98 "Hg10 mi
4:00 PM75 °FSunny.2 mph11%29.98 "Hg10 mi
3:30 PM75 °FSunny.No wind11%29.98 "Hg10 mi
3:00 PM75 °FSunny.No wind11%29.98 "Hg10 mi
2:30 PM75 °FSunny.No wind11%30.01 "Hg10 mi
2:00 PM75 °FSunny.No wind11%30.01 "Hg10 mi
1:30 PM73 °FSunny.2 mph13%30.01 "Hg10 mi
1:00 PM73 °FSunny.No wind13%30.01 "Hg10 mi
12:30 PM72 °FSunny.No wind14%30.04 "Hg10 mi
12:00 PM72 °FSunny.No wind14%30.04 "Hg10 mi
11:30 AM70 °FSunny.No wind15%30.07 "Hg10 mi
11:00 AM72 °FSunny.No wind15%30.07 "Hg10 mi
10:30 AM70 °FClear.No wind17%30.09 "Hg4 mi
10:00 AM68 °FClear.No wind21%30.09 "Hg4 mi
9:30 AM64 °FClear.No wind24%30.09 "Hg4 mi
9:00 AM64 °FClear.3 mph22%30.09 "Hg4 mi
8:30 AM61 °FClear.5 mph27%30.09 "Hg4 mi
8:00 AM55 °FClear.7 mph31%30.09 "Hg4 mi
7:30 AM54 °FSunny.7 mph33%30.09 "Hg10 mi
7:00 AM54 °FSunny.6 mph33%30.07 "Hg10 mi
6:30 AM52 °FClear.6 mph35%30.07 "Hg10 mi
6:00 AM52 °FClear.6 mph35%30.07 "Hg10 mi
5:00 AM52 °FClear.7 mph38%30.07 "Hg10 mi
4:30 AM54 °FClear.6 mph35%30.07 "Hg10 mi
3:00 AM54 °FClear.7 mph35%30.07 "Hg10 mi
2:30 AM54 °FClear.7 mph35%30.07 "Hg10 mi
2:00 AM54 °FClear.7 mph35%30.07 "Hg10 mi
1:30 AM54 °FClear.7 mph38%30.09 "Hg10 mi
1:00 AM55 °FClear.6 mph36%30.09 "Hg10 mi
12:30 AM55 °FClear.6 mph36%30.09 "Hg10 mi
12:00 AM55 °FClear.6 mph36%30.09 "Hg10 mi
11:30 PM
Jan 31
55 °FClear.6 mph36%30.09 "Hg10 mi
11:00 PM54 °FClear.6 mph35%30.09 "Hg10 mi
10:30 PM55 °FClear.5 mph36%30.09 "Hg10 mi
10:00 PM55 °FClear.5 mph36%30.09 "Hg10 mi
Weather by CustomWeather, © 2014

See weather overviewHow to use our weather pages